Main page
Satellite images Climate Cyclones Lightning AirportsFAQ Languages Contact Newsletter About
Weather : Europe Africa North America South America Asia Australia-Oceania Others

mandalay-mm, Mandalay, Mandalay International Airport

48042

latitude: , longitude: Myanmar, elevation: 21-59N m


METAR: VYMD 200230Z 16008KT 7000 SCT020 FEW120 30/24 Q1004